^^
Station Historical Data
Daily Summary for November 8, 2018 Units:  Metric    English   Both
« Previous Day
Next Day »
Daily Weekly Monthly Yearly Custom
  High: Low: Average:
Temperature: -17.8 °C 0.7 °C 4.3 °C
Dew Point: -17.8 °C -0.9 °C 1.5 °C
Humidity: Humidity % 67 % 82 %
Wind Speed: 0 km/h 0 km/h 2.4 km/h
Wind Gust: 0 km/h - -
Wind:- - WNW
Pressure: 0 hPa 1011.4 hPa -
Precipitation: 0.25 mm    
Historical Graphs
 
 
Tabular Data for November 8, 2018
Time Temperature Dew Point Pressure Wind Wind Speed Wind Gust Humidity Rainfall Rate (Hourly) solar Conditions
-17.8 °C -17.8 °C 0 hPa Calm     Humidity % 0 mm SoftwareType W/m2 Conditions
00:00 4.9 °C 2.8 °C 1011.4 hPa WNW 3.2 km/h 19.3 km/h 86 % 0 mm WeatherDisplay:10.37 W/m2 RA
00:15 5 °C 2.7 °C 1011.7 hPa West 8 km/h 16.1 km/h 85 % 0 mm WeatherDisplay:10.37 W/m2 FEW
00:20 5 °C 2.7 °C 1011.7 hPa West 4.8 km/h 14.5 km/h 85 % 0 mm WeatherDisplay:10.37 W/m2 FEW
00:30 5.1 °C 2.7 °C 1011.7 hPa WNW 1.6 km/h 14.5 km/h 85 % 0 mm WeatherDisplay:10.37 W/m2 FEW
00:35 5.1 °C 2.7 °C 1011.7 hPa NW 1.6 km/h 8 km/h 85 % 0 mm WeatherDisplay:10.37 W/m2 FEW
00:45 5.1 °C 2.7 °C 1012.1 hPa WNW 3.2 km/h 16.1 km/h 85 % 0 mm WeatherDisplay:10.37 W/m2 FEW
00:50 5.1 °C 2.6 °C 1012.1 hPa NW 1.6 km/h 19.3 km/h 84 % 0 mm WeatherDisplay:10.37 W/m2 FEW
01:00 5.1 °C 2.7 °C 1012.1 hPa WNW 3.2 km/h 22.5 km/h 85 % 0.25 mm WeatherDisplay:10.37 W/m2 RA
01:05 5.1 °C 2.7 °C 1012.1 hPa West 3.2 km/h 17.7 km/h 85 % 0 mm WeatherDisplay:10.37 W/m2 RA
01:15 5 °C 2.7 °C 1012.4 hPa West 3.2 km/h 11.3 km/h 85 % 0 mm WeatherDisplay:10.37 W/m2 FEW
01:20 5 °C 2.8 °C 1012.8 hPa West 1.6 km/h 16.1 km/h 86 % 0 mm WeatherDisplay:10.37 W/m2 FEW
01:35 4.8 °C 2.7 °C 1012.8 hPa WNW 1.6 km/h 19.3 km/h 86 % 0 mm WeatherDisplay:10.37 W/m2 FEW
01:40 4.8 °C 2.8 °C 1012.8 hPa NW 4.8 km/h 12.9 km/h 87 % 0 mm WeatherDisplay:10.37 W/m2 FEW
01:45 4.8 °C 2.8 °C 1013.1 hPa WNW 3.2 km/h 19.3 km/h 87 % 0 mm WeatherDisplay:10.37 W/m2 FEW
01:55 4.8 °C 2.6 °C 1013.1 hPa WNW 9.7 km/h 19.3 km/h 86 % 0 mm WeatherDisplay:10.37 W/m2 FEW
02:00 4.8 °C 2.6 °C 1013.1 hPa West 3.2 km/h 12.9 km/h 86 % 0 mm WeatherDisplay:10.37 W/m2 FEW
02:05 4.8 °C 2.6 °C 1013.4 hPa West 3.2 km/h 12.9 km/h 86 % 0 mm WeatherDisplay:10.37 W/m2 FEW
02:15 4.8 °C 2.6 °C 1013.4 hPa West 8 km/h 19.3 km/h 86 % 0 mm WeatherDisplay:10.37 W/m2 FEW
02:20 4.8 °C 2.6 °C 1013.4 hPa West 1.6 km/h 19.3 km/h 86 % 0 mm WeatherDisplay:10.37 W/m2 FEW
02:35 4.8 °C 2.4 °C 1013.8 hPa WSW 8 km/h 24.1 km/h 85 % 0 mm WeatherDisplay:10.37 W/m2 FEW
02:50 4.8 °C 2.4 °C 1013.8 hPa West 1.6 km/h 25.7 km/h 85 % 0 mm WeatherDisplay:10.37 W/m2 FEW
02:55 4.8 °C 2.4 °C 1013.8 hPa West 3.2 km/h 12.9 km/h 85 % 0 mm WeatherDisplay:10.37 W/m2 FEW
03:00 4.8 °C 2.4 °C 1013.8 hPa WNW 1.6 km/h 16.1 km/h 85 % 0 mm WeatherDisplay:10.37 W/m2 FEW
03:05 4.8 °C 2.4 °C 1013.8 hPa Calm   12.9 km/h 85 % 0 mm WeatherDisplay:10.37 W/m2 FEW
03:25 4.7 °C 2.4 °C 1014.1 hPa West 3.2 km/h 12.9 km/h 85 % 0 mm WeatherDisplay:10.37 W/m2 FEW
03:30 4.7 °C 2.4 °C 1014.4 hPa WNW 3.2 km/h 12.9 km/h 85 % 0 mm WeatherDisplay:10.37 W/m2 FEW
03:55 4.6 °C 2.1 °C 1014.8 hPa NW 1.6 km/h 12.9 km/h 84 % 0 mm WeatherDisplay:10.37 W/m2 FEW
04:00 4.5 °C 2.1 °C 1014.8 hPa WNW 3.2 km/h 14.5 km/h 84 % 0 mm WeatherDisplay:10.37 W/m2 FEW
04:05 4.5 °C 2.1 °C 1014.8 hPa WNW 1.6 km/h 14.5 km/h 84 % 0 mm WeatherDisplay:10.37 W/m2 FEW
04:15 4.4 °C 2 °C 1014.8 hPa WNW 1.6 km/h 16.1 km/h 84 % 0 mm WeatherDisplay:10.37 W/m2 FEW
04:25 4.4 °C 2.1 °C 1014.8 hPa West 4.8 km/h 19.3 km/h 85 % 0 mm WeatherDisplay:10.37 W/m2 FEW
04:30 4.3 °C 2.1 °C 1014.8 hPa West 1.6 km/h 19.3 km/h 85 % 0 mm WeatherDisplay:10.37 W/m2 FEW
04:35 4.3 °C 2 °C 1014.8 hPa WSW 4.8 km/h 19.3 km/h 85 % 0 mm WeatherDisplay:10.37 W/m2 FEW
04:45 4.3 °C 1.9 °C 1014.8 hPa WNW 3.2 km/h 12.9 km/h 85 % 0 mm WeatherDisplay:10.37 W/m2 FEW
04:55 4.2 °C 1.9 °C 1015.1 hPa West 4.8 km/h 14.5 km/h 85 % 0 mm WeatherDisplay:10.37 W/m2 FEW
05:00 4.2 °C 1.9 °C 1015.1 hPa West 3.2 km/h 12.9 km/h 85 % 0 mm WeatherDisplay:10.37 W/m2 FEW
05:05 4.2 °C 1.9 °C 1015.1 hPa WNW 3.2 km/h 14.5 km/h 85 % 0 mm WeatherDisplay:10.37 W/m2 FEW
05:10 4.2 °C 1.9 °C 1015.1 hPa WNW 4.8 km/h 12.9 km/h 85 % 0 mm WeatherDisplay:10.37 W/m2 FEW
05:15 4.2 °C 1.9 °C 1015.1 hPa West 1.6 km/h 14.5 km/h 85 % 0 mm WeatherDisplay:10.37 W/m2 FEW
05:20 4.1 °C 1.8 °C 1015.1 hPa WSW 1.6 km/h 6.4 km/h 85 % 0 mm WeatherDisplay:10.37 W/m2 FEW
05:25 4.1 °C 2 °C 1015.1 hPa West 1.6 km/h 19.3 km/h 86 % 0 mm WeatherDisplay:10.37 W/m2 FEW
05:30 4.1 °C 1.8 °C 1015.1 hPa West 3.2 km/h 19.3 km/h 85 % 0 mm WeatherDisplay:10.37 W/m2 FEW
05:35 4.1 °C 1.9 °C 1015.5 hPa Calm   8 km/h 86 % 0 mm WeatherDisplay:10.37 W/m2 FEW
05:40 4.1 °C 1.9 °C 1015.5 hPa Calm   9.7 km/h 86 % 0 mm WeatherDisplay:10.37 W/m2 FEW
05:45 4.1 °C 1.9 °C 1015.5 hPa Calm   8 km/h 86 % 0 mm WeatherDisplay:10.37 W/m2 FEW
05:55 4 °C 1.9 °C 1015.8 hPa Calm   9.7 km/h 86 % 0 mm WeatherDisplay:10.37 W/m2 FEW
06:15 3.9 °C 1.8 °C 1015.8 hPa WNW 1.6 km/h 11.3 km/h 86 % 0 mm WeatherDisplay:10.37 W/m2 FEW
06:20 3.9 °C 1.8 °C 1015.8 hPa WNW 1.6 km/h 9.7 km/h 86 % 0 mm WeatherDisplay:10.37 W/m2 FEW
06:30 3.9 °C 1.8 °C 1016.1 hPa West 3.2 km/h 11.3 km/h 86 % 0 mm WeatherDisplay:10.37 W/m2 FEW
06:35 3.9 °C 1.8 °C 1016.1 hPa West 1.6 km/h 11.3 km/h 86 % 0 mm WeatherDisplay:10.37 W/m2 FEW
06:40 3.9 °C 1.8 °C 1016.1 hPa West 1.6 km/h 14.5 km/h 86 % 0 mm WeatherDisplay:10.37 W/m2 FEW
06:45 3.9 °C 1.7 °C 1016.1 hPa WNW 1.6 km/h 12.9 km/h 86 % 0 mm WeatherDisplay:10.37 W/m2 FEW
06:50 3.8 °C 1.7 °C 1016.1 hPa Calm   16.1 km/h 86 % 0 mm WeatherDisplay:10.37 W/m2 FEW
07:05 3.8 °C 1.7 °C 1016.5 hPa WNW 1.6 km/h 14.5 km/h 86 % 0 mm WeatherDisplay:10.37 W/m2 FEW
07:15 3.8 °C 1.7 °C 1016.8 hPa West 1.6 km/h 14.5 km/h 86 % 0 mm WeatherDisplay:10.37 W/m2 FEW
07:35 3.9 °C 1.8 °C 1017.2 hPa WSW 3.2 km/h 9.7 km/h 86 % 0 mm WeatherDisplay:10.37 W/m2 FEW
07:40 3.8 °C 1.7 °C 1017.2 hPa WSW 1.6 km/h 11.3 km/h 86 % 0 mm WeatherDisplay:10.37 W/m2 FEW
07:45 3.8 °C 1.7 °C 1017.2 hPa West 3.2 km/h 16.1 km/h 86 % 0 mm WeatherDisplay:10.37 W/m2 FEW
07:50 3.9 °C 1.8 °C 1017.2 hPa Calm   9.7 km/h 86 % 0 mm WeatherDisplay:10.37 W/m2 FEW
07:55 3.9 °C 1.9 °C 1017.2 hPa West 1.6 km/h 8 km/h 87 % 0 mm WeatherDisplay:10.37 W/m2 FEW
08:00 3.9 °C 1.8 °C 1017.2 hPa WNW 1.6 km/h 16.1 km/h 86 % 0 mm WeatherDisplay:10.37 W/m2 FEW
08:05 3.9 °C 1.8 °C 1017.2 hPa WNW 3.2 km/h 11.3 km/h 86 % 0 mm WeatherDisplay:10.37 W/m2 FEW
08:20 4 °C 1.9 °C 1017.5 hPa NW 1.6 km/h 8 km/h 86 % 0 mm WeatherDisplay:10.37 W/m2 FEW
08:25 4 °C 1.9 °C 1017.5 hPa Calm   9.7 km/h 86 % 0 mm WeatherDisplay:10.37 W/m2 FEW
08:30 4.1 °C 1.9 °C 1017.8 hPa West 1.6 km/h 6.4 km/h 86 % 0 mm WeatherDisplay:10.37 W/m2 FEW
08:35 4.1 °C 2 °C 1017.8 hPa West 4.8 km/h 12.9 km/h 86 % 0 mm WeatherDisplay:10.37 W/m2 FEW
08:50 4.4 °C 2.3 °C 1018.2 hPa West 3.2 km/h 16.1 km/h 86 % 0 mm WeatherDisplay:10.37 W/m2 FEW
08:55 4.4 °C 2.2 °C 1018.2 hPa WSW 1.6 km/h 12.9 km/h 85 % 0 mm WeatherDisplay:10.37 W/m2 FEW
09:15 4.6 °C 2.1 °C 1018.5 hPa WNW 1.6 km/h 11.3 km/h 84 % 0 mm WeatherDisplay:10.37 W/m2 FEW
09:20 4.7 °C 2.2 °C 1018.5 hPa WNW 1.6 km/h 8 km/h 84 % 0 mm WeatherDisplay:10.37 W/m2 FEW
09:25 4.7 °C 2.2 °C 1018.5 hPa WNW 4.8 km/h 11.3 km/h 84 % 0 mm WeatherDisplay:10.37 W/m2 FEW
09:40 4.9 °C 2.3 °C 1018.5 hPa NW 1.6 km/h 11.3 km/h 83 % 0 mm WeatherDisplay:10.37 W/m2 FEW
10:00 5.3 °C 2.3 °C 1018.8 hPa WNW 4.8 km/h 20.9 km/h 81 % 0 mm WeatherDisplay:10.37 W/m2 FEW
10:05 5.3 °C 2.3 °C 1018.8 hPa WNW 4.8 km/h 12.9 km/h 81 % 0 mm WeatherDisplay:10.37 W/m2 FEW
10:20 5.5 °C 2.3 °C 1019.2 hPa WNW 3.2 km/h 12.9 km/h 80 % 0 mm WeatherDisplay:10.37 W/m2 FEW
10:25 5.6 °C 2.2 °C 1019.2 hPa WNW 3.2 km/h 16.1 km/h 79 % 0 mm WeatherDisplay:10.37 W/m2 FEW
10:30 5.7 °C 2.5 °C 1019.2 hPa WNW 3.2 km/h 12.9 km/h 80 % 0 mm WeatherDisplay:10.37 W/m2 FEW
10:40 5.9 °C 2.5 °C 1019.5 hPa West 3.2 km/h 12.9 km/h 79 % 0 mm WeatherDisplay:10.37 W/m2 FEW
10:45 5.9 °C 2.6 °C 1019.5 hPa WNW 3.2 km/h 11.3 km/h 79 % 0 mm WeatherDisplay:10.37 W/m2 FEW
10:50 6.1 °C 2.7 °C 1019.5 hPa WNW 3.2 km/h 14.5 km/h 79 % 0 mm WeatherDisplay:10.37 W/m2 FEW
11:00 6.1 °C 2.6 °C 1019.5 hPa West 3.2 km/h 11.3 km/h 78 % 0 mm WeatherDisplay:10.37 W/m2 FEW
11:10 6 °C 1.9 °C 1019.5 hPa West 1.6 km/h 17.7 km/h 75 % 0 mm WeatherDisplay:10.37 W/m2 FEW
11:25 6.2 °C 1.7 °C 1019.5 hPa NW 4.8 km/h 19.3 km/h 73 % 0 mm WeatherDisplay:10.37 W/m2 FEW
11:35 6.4 °C 1.9 °C 1019.5 hPa NW 4.8 km/h 22.5 km/h 73 % 0 mm WeatherDisplay:10.37 W/m2 FEW
11:40 6.5 °C 1.8 °C 1019.5 hPa NW 9.7 km/h 20.9 km/h 72 % 0 mm WeatherDisplay:10.37 W/m2 FEW
11:45 6.6 °C 1.9 °C 1019.5 hPa WNW 4.8 km/h 20.9 km/h 72 % 0 mm WeatherDisplay:10.37 W/m2 FEW
11:55 6.7 °C 1.6 °C 1019.5 hPa WNW 8 km/h 20.9 km/h 70 % 0 mm WeatherDisplay:10.37 W/m2 FEW
12:00 6.7 °C 1.7 °C 1019.5 hPa NW 9.7 km/h 19.3 km/h 70 % 0 mm WeatherDisplay:10.37 W/m2 FEW
12:20 6.8 °C 1.8 °C 1019.2 hPa NW 1.6 km/h 11.3 km/h 71 % 0 mm WeatherDisplay:10.37 W/m2 FEW
12:25 6.8 °C 1.7 °C 1019.2 hPa NW 3.2 km/h 14.5 km/h 70 % 0 mm WeatherDisplay:10.37 W/m2 FEW
12:45 6.8 °C 1.3 °C 1019.2 hPa WNW 8 km/h 16.1 km/h 68 % 0 mm WeatherDisplay:10.37 W/m2 FEW
13:00 6.8 °C 1.1 °C 1019.5 hPa NW 8 km/h 20.9 km/h 67 % 0 mm WeatherDisplay:10.37 W/m2 FEW
13:05 6.7 °C 1 °C 1019.5 hPa NNW 1.6 km/h 20.9 km/h 67 % 0 mm WeatherDisplay:10.37 W/m2 FEW
13:10 6.7 °C 0.9 °C 1019.5 hPa NW 9.7 km/h 19.3 km/h 67 % 0 mm WeatherDisplay:10.37 W/m2 FEW
13:15 6.6 °C 1.1 °C 1019.5 hPa NW 4.8 km/h 14.5 km/h 68 % 0 mm WeatherDisplay:10.37 W/m2 FEW
13:25 6.6 °C 1.1 °C 1019.5 hPa NW 1.6 km/h 9.7 km/h 68 % 0 mm WeatherDisplay:10.37 W/m2 FEW
13:45 6.4 °C 0.9 °C 1019.5 hPa NW 4.8 km/h 14.5 km/h 68 % 0 mm WeatherDisplay:10.37 W/m2 FEW
14:00 6.4 °C 1.1 °C 1019.9 hPa NNW 8 km/h 12.9 km/h 69 % 0 mm WeatherDisplay:10.37 W/m2 FEW
14:15 6.3 °C 1.2 °C 1019.9 hPa NW 8 km/h 19.3 km/h 70 % 0 mm WeatherDisplay:10.37 W/m2 FEW
14:20 6.3 °C 1.2 °C 1019.9 hPa NW 8 km/h 19.3 km/h 70 % 0 mm WeatherDisplay:10.37 W/m2 FEW
14:35 6.2 °C 1.3 °C 1020.2 hPa NNW 1.6 km/h 8 km/h 71 % 0 mm WeatherDisplay:10.37 W/m2 FEW
14:50 6.2 °C 0.9 °C 1020.2 hPa WNW 4.8 km/h 16.1 km/h 69 % 0 mm WeatherDisplay:10.37 W/m2 FEW
15:00 6.1 °C 0.7 °C 1020.5 hPa Calm   12.9 km/h 68 % 0 mm WeatherDisplay:10.37 W/m2 FEW
15:20 6.1 °C 0.7 °C 1020.5 hPa NNW 3.2 km/h 8 km/h 68 % 0 mm WeatherDisplay:10.37 W/m2 FEW
15:35 6.2 °C 0.5 °C 1020.9 hPa NW 1.6 km/h 8 km/h 67 % 0 mm WeatherDisplay:10.37 W/m2 FEW
15:45 6.2 °C 0.7 °C 1020.9 hPa NW 1.6 km/h 6.4 km/h 68 % 0 mm WeatherDisplay:10.37 W/m2 FEW
15:50 6.2 °C 0.7 °C 1020.9 hPa WNW 1.6 km/h 4.8 km/h 68 % 0 mm WeatherDisplay:10.37 W/m2 FEW
15:55 6.1 °C 0.7 °C 1020.9 hPa Calm   1.6 km/h 68 % 0 mm WeatherDisplay:10.37 W/m2 FEW
16:10 6.1 °C 0.6 °C 1021.2 hPa Calm   4.8 km/h 68 % 0 mm WeatherDisplay:10.37 W/m2 FEW
16:15 6 °C 0.7 °C 1021.2 hPa NW 1.6 km/h 6.4 km/h 69 % 0 mm WeatherDisplay:10.37 W/m2 FEW
16:20 5.9 °C 0.7 °C 1021.2 hPa Calm   3.2 km/h 69 % 0 mm WeatherDisplay:10.37 W/m2 FEW
16:25 5.9 °C 0.7 °C 1021.2 hPa Calm   4.8 km/h 69 % 0 mm WeatherDisplay:10.37 W/m2 FEW
16:45 5.8 °C 0.7 °C 1021.6 hPa Calm     70 % 0 mm WeatherDisplay:10.37 W/m2 FEW
16:55 5.7 °C 0.8 °C 1021.9 hPa NNW 3.2 km/h 14.5 km/h 71 % 0 mm WeatherDisplay:10.37 W/m2 FEW
17:05 5.5 °C 1.4 °C 1022.2 hPa NNW 1.6 km/h 11.3 km/h 75 % 0 mm WeatherDisplay:10.37 W/m2 FEW
17:10 5.3 °C 1.7 °C 1022.2 hPa NNW 4.8 km/h 16.1 km/h 77 % 0 mm WeatherDisplay:10.37 W/m2 FEW
17:15 5.2 °C 1.8 °C 1022.2 hPa NNW 4.8 km/h 12.9 km/h 79 % 0 mm WeatherDisplay:10.37 W/m2 FEW
17:20 4.9 °C 1.9 °C 1022.6 hPa NNW 3.2 km/h 12.9 km/h 81 % 0 mm WeatherDisplay:10.37 W/m2 FEW
17:25 4.7 °C 1.9 °C 1022.6 hPa NW 3.2 km/h 11.3 km/h 82 % 0 mm WeatherDisplay:10.37 W/m2 FEW
17:30 4.6 °C 1.9 °C 1022.6 hPa NW 1.6 km/h 8 km/h 83 % 0 mm WeatherDisplay:10.37 W/m2 FEW
17:35 4.4 °C 2 °C 1022.6 hPa NW 1.6 km/h 6.4 km/h 84 % 0 mm WeatherDisplay:10.37 W/m2 FEW
17:50 4.1 °C 1.9 °C 1022.6 hPa Calm   3.2 km/h 86 % 0 mm WeatherDisplay:10.37 W/m2 FEW
18:00 3.9 °C 1.9 °C 1022.9 hPa Calm   3.2 km/h 87 % 0 mm WeatherDisplay:10.37 W/m2 FEW
18:05 3.8 °C 1.8 °C 1022.9 hPa Calm   1.6 km/h 87 % 0 mm WeatherDisplay:10.37 W/m2 FEW
18:20 3.6 °C 1.8 °C 1022.9 hPa Calm   4.8 km/h 88 % 0 mm WeatherDisplay:10.37 W/m2 FEW
18:25 3.5 °C 1.8 °C 1022.9 hPa Calm   3.2 km/h 89 % 0 mm WeatherDisplay:10.37 W/m2 FEW
18:30 3.4 °C 1.8 °C 1022.9 hPa Calm   3.2 km/h 89 % 0 mm WeatherDisplay:10.37 W/m2 FEW
18:35 3.4 °C 1.7 °C 1022.9 hPa Calm   4.8 km/h 89 % 0 mm WeatherDisplay:10.37 W/m2 FEW
18:45 3.3 °C 1.6 °C 1023.2 hPa NW 1.6 km/h 4.8 km/h 89 % 0 mm WeatherDisplay:10.37 W/m2 FEW
18:50 3.3 °C 1.8 °C 1023.2 hPa Calm   8 km/h 90 % 0 mm WeatherDisplay:10.37 W/m2 FEW
18:55 3.2 °C 1.7 °C 1023.2 hPa NW 4.8 km/h 11.3 km/h 90 % 0 mm WeatherDisplay:10.37 W/m2 FEW
19:05 3.2 °C 1.6 °C 1023.2 hPa NW 1.6 km/h 11.3 km/h 89 % 0 mm WeatherDisplay:10.37 W/m2 FEW
19:10 3.2 °C 1.6 °C 1023.2 hPa NW 4.8 km/h 11.3 km/h 89 % 0 mm WeatherDisplay:10.37 W/m2 FEW
19:25 3.3 °C 1.5 °C 1023.6 hPa WNW 3.2 km/h 12.9 km/h 88 % 0 mm WeatherDisplay:10.37 W/m2 FEW
19:30 3.3 °C 1.6 °C 1023.6 hPa Calm   4.8 km/h 88 % 0 mm WeatherDisplay:10.37 W/m2 FEW
19:40 3.4 °C 1.6 °C 1023.6 hPa WNW 1.6 km/h 11.3 km/h 88 % 0 mm WeatherDisplay:10.37 W/m2 FEW
19:55 3.4 °C 1.6 °C 1023.9 hPa NW 3.2 km/h 11.3 km/h 88 % 0 mm WeatherDisplay:10.37 W/m2 FEW
20:00 3.4 °C 1.6 °C 1023.9 hPa NW 1.6 km/h 9.7 km/h 88 % 0 mm WeatherDisplay:10.37 W/m2 FEW
20:10 3.4 °C 1.4 °C 1023.9 hPa NW 1.6 km/h 8 km/h 87 % 0 mm WeatherDisplay:10.37 W/m2 FEW
20:25 3.4 °C 1.4 °C 1023.9 hPa NW 1.6 km/h 9.7 km/h 87 % 0 mm WeatherDisplay:10.37 W/m2 FEW
20:30 3.4 °C 1.4 °C 1024.3 hPa Calm   11.3 km/h 87 % 0 mm WeatherDisplay:10.37 W/m2 FEW
20:50 3.4 °C 1.3 °C 1024.3 hPa NW 1.6 km/h 6.4 km/h 86 % 0 mm WeatherDisplay:10.37 W/m2 FEW
21:00 3.4 °C 1.3 °C 1024.6 hPa NNW 3.2 km/h 9.7 km/h 86 % 0 mm WeatherDisplay:10.37 W/m2 FEW
21:05 3.4 °C 1.3 °C 1024.6 hPa NW 4.8 km/h 12.9 km/h 86 % 0 mm WeatherDisplay:10.37 W/m2 FEW
21:15 3.4 °C 1.1 °C 1024.9 hPa NW 1.6 km/h 8 km/h 85 % 0 mm WeatherDisplay:10.37 W/m2 FEW
21:20 3.4 °C 1.1 °C 1024.9 hPa NW 1.6 km/h 8 km/h 85 % 0 mm WeatherDisplay:10.37 W/m2 FEW
21:30 3.4 °C 1.1 °C 1024.9 hPa Calm   4.8 km/h 85 % 0 mm WeatherDisplay:10.37 W/m2 FEW
21:35 3.4 °C 1.1 °C 1024.9 hPa NW 1.6 km/h 6.4 km/h 85 % 0 mm WeatherDisplay:10.37 W/m2 FEW
21:40 3.4 °C 1.1 °C 1024.9 hPa Calm   4.8 km/h 85 % 0 mm WeatherDisplay:10.37 W/m2 FEW
21:45 3.3 °C 1.1 °C 1025.3 hPa Calm   9.7 km/h 85 % 0 mm WeatherDisplay:10.37 W/m2 FEW
21:55 3.3 °C 1 °C 1025.3 hPa Calm   3.2 km/h 85 % 0 mm WeatherDisplay:10.37 W/m2 FEW
22:05 3.2 °C 0.9 °C 1025.3 hPa Calm     85 % 0 mm WeatherDisplay:10.37 W/m2 FEW
22:15 3 °C 0.6 °C 1025.3 hPa Calm   1.6 km/h 84 % 0 mm WeatherDisplay:10.37 W/m2 FEW
22:20 2.9 °C 0.4 °C 1025.3 hPa Calm   1.6 km/h 84 % 0 mm WeatherDisplay:10.37 W/m2 FEW
22:25 2.8 °C 0.5 °C 1025.3 hPa Calm   3.2 km/h 85 % 0 mm WeatherDisplay:10.37 W/m2 FEW
22:30 2.6 °C 0.3 °C 1025.3 hPa NW 1.6 km/h 4.8 km/h 85 % 0 mm WeatherDisplay:10.37 W/m2 FEW
22:40 2.4 °C 0.3 °C 1025.6 hPa Calm   3.2 km/h 86 % 0 mm WeatherDisplay:10.37 W/m2 FEW
22:45 2.2 °C 0.1 °C 1025.6 hPa Calm   4.8 km/h 86 % 0 mm WeatherDisplay:10.37 W/m2 FEW
22:55 2.1 °C -0.1 °C 1025.6 hPa Calm   1.6 km/h 86 % 0 mm WeatherDisplay:10.37 W/m2 FEW
23:00 1.9 °C -0.2 °C 1025.6 hPa Calm     86 % 0 mm WeatherDisplay:10.37 W/m2 FEW
23:15 1.6 °C -0.5 °C 1026 hPa Calm     86 % 0 mm WeatherDisplay:10.37 W/m2 FEW
23:20 1.5 °C -0.6 °C 1026 hPa Calm     86 % 0 mm WeatherDisplay:10.37 W/m2 FEW
23:30 1.2 °C -0.7 °C 1026 hPa Calm   4.8 km/h 87 % 0 mm WeatherDisplay:10.37 W/m2 FEW
23:35 1.1 °C -0.8 °C 1026 hPa Calm   4.8 km/h 87 % 0 mm WeatherDisplay:10.37 W/m2 FEW
23:40 0.9 °C -0.8 °C 1026 hPa NW 1.6 km/h 4.8 km/h 88 % 0 mm WeatherDisplay:10.37 W/m2 FEW
23:50 0.8 °C -0.8 °C 1026 hPa Calm   4.8 km/h 89 % 0 mm WeatherDisplay:10.37 W/m2 FEW
23:55 0.7 °C -0.9 °C 1026 hPa NW 1.6 km/h 9.7 km/h 89 % 0 mm WeatherDisplay:10.37 W/m2 FEW
Juneau County Weather
Compliments of Weather Underground - 2.25 mb